owner,sensor,date,latitude,longitude,sea_surface_height_above_sea_level,qcFlag 
TCOON,ioos:station:TCOON:057:1,2015-04-01T00:12:00Z,28.4460,-96.3961,3.526,1111122 
TCOON,ioos:station:TCOON:057:1,2015-04-01T01:12:00Z,28.4460,-96.3961,3.517,1111122 
TCOON,ioos:station:TCOON:057:1,2015-04-01T02:12:00Z,28.4460,-96.3961,3.515,1111122 
TCOON,ioos:station:TCOON:057:1,2015-04-01T03:18:00Z,28.4460,-96.3961,3.49,1111122 
TCOON,ioos:station:TCOON:057:1,2015-04-01T04:18:00Z,28.4460,-96.3961,3.508,1111122 
TCOON,ioos:station:TCOON:057:1,2015-04-01T05:18:00Z,28.4460,-96.3961,3.508,1111122 
TCOON,ioos:station:TCOON:057:1,2015-04-01T07:06:00Z,28.4460,-96.3961,3.541,1111122 
TCOON,ioos:station:TCOON:057:1,2015-04-01T08:18:00Z,28.4460,-96.3961,3.535,1111122 
TCOON,ioos:station:TCOON:057:1,2015-04-01T09:24:00Z,28.4460,-96.3961,3.529,1111122 
TCOON,ioos:station:TCOON:057:1,2015-04-01T10:18:00Z,28.4460,-96.3961,3.526,1111122 
TCOON,ioos:station:TCOON:057:1,2015-04-01T11:12:00Z,28.4460,-96.3961,3.525,1111122 
TCOON,ioos:station:TCOON:057:1,2015-04-01T12:12:00Z,28.4460,-96.3961,3.512,1111122 
TCOON,ioos:station:TCOON:057:1,2015-04-01T13:12:00Z,28.4460,-96.3961,3.493,1111122 
TCOON,ioos:station:TCOON:057:1,2015-04-01T14:12:00Z,28.4460,-96.3961,3.486,1111122 
TCOON,ioos:station:TCOON:057:1,2015-04-01T15:18:00Z,28.4460,-96.3961,3.462,1111122 
TCOON,ioos:station:TCOON:057:1,2015-04-01T16:18:00Z,28.4460,-96.3961,3.455,1111122 
TCOON,ioos:station:TCOON:057:1,2015-04-01T17:18:00Z,28.4460,-96.3961,3.453,1111122 
TCOON,ioos:station:TCOON:057:1,2015-04-01T18:12:00Z,28.4460,-96.3961,3.478,1111122 
TCOON,ioos:station:TCOON:057:1,2015-04-01T19:18:00Z,28.4460,-96.3961,3.484,1111122 
TCOON,ioos:station:TCOON:057:1,2015-04-01T20:18:00Z,28.4460,-96.3961,3.494,1111122 
TCOON,ioos:station:TCOON:057:1,2015-04-01T21:12:00Z,28.4460,-96.3961,3.532,1111122 
TCOON,ioos:station:TCOON:057:1,2015-04-01T22:18:00Z,28.4460,-96.3961,3.543,1111122 
TCOON,ioos:station:TCOON:057:1,2015-04-01T23:12:00Z,28.4460,-96.3961,3.548,1111122 
TCOON,ioos:station:TCOON:057:1,2015-04-02T00:12:00Z,28.4460,-96.3961,3.56,1111122 
TCOON,ioos:station:TCOON:057:1,2015-04-02T01:12:00Z,28.4460,-96.3961,3.554,1111122 
TCOON,ioos:station:TCOON:057:1,2015-04-02T02:12:00Z,28.4460,-96.3961,3.533,1111122 
TCOON,ioos:station:TCOON:057:1,2015-04-02T03:12:00Z,28.4460,-96.3961,3.523,1111122 
TCOON,ioos:station:TCOON:057:1,2015-04-02T04:18:00Z,28.4460,-96.3961,3.538,1111122 
TCOON,ioos:station:TCOON:057:1,2015-04-02T05:18:00Z,28.4460,-96.3961,3.525,1111122 
TCOON,ioos:station:TCOON:057:1,2015-04-02T06:18:00Z,28.4460,-96.3961,3.5,1111122 
TCOON,ioos:station:TCOON:057:1,2015-04-02T07:12:00Z,28.4460,-96.3961,3.54,1111122 
TCOON,ioos:station:TCOON:057:1,2015-04-02T08:12:00Z,28.4460,-96.3961,3.538,1111122 
TCOON,ioos:station:TCOON:057:1,2015-04-02T09:30:00Z,28.4460,-96.3961,3.569,1111122 
TCOON,ioos:station:TCOON:057:1,2015-04-02T10:12:00Z,28.4460,-96.3961,3.576,1111122 
TCOON,ioos:station:TCOON:057:1,2015-04-02T11:18:00Z,28.4460,-96.3961,3.578,1111122 
TCOON,ioos:station:TCOON:057:1,2015-04-02T12:18:00Z,28.4460,-96.3961,3.577,1111122 
TCOON,ioos:station:TCOON:057:1,2015-04-02T13:18:00Z,28.4460,-96.3961,3.565,1111122 
TCOON,ioos:station:TCOON:057:1,2015-04-02T14:12:00Z,28.4460,-96.3961,3.556,1111122 
TCOON,ioos:station:TCOON:057:1,2015-04-02T15:18:00Z,28.4460,-96.3961,3.528,1111122 
TCOON,ioos:station:TCOON:057:1,2015-04-02T16:12:00Z,28.4460,-96.3961,3.52,1111122 
TCOON,ioos:station:TCOON:057:1,2015-04-02T17:18:00Z,28.4460,-96.3961,3.516,1111122 
TCOON,ioos:station:TCOON:057:1,2015-04-02T18:18:00Z,28.4460,-96.3961,3.502,1111122 
TCOON,ioos:station:TCOON:057:1,2015-04-02T19:12:00Z,28.4460,-96.3961,3.522,1111122 
TCOON,ioos:station:TCOON:057:1,2015-04-02T20:12:00Z,28.4460,-96.3961,3.538,1111122 
TCOON,ioos:station:TCOON:057:1,2015-04-02T21:12:00Z,28.4460,-96.3961,3.561,1111122 
TCOON,ioos:station:TCOON:057:1,2015-04-02T22:12:00Z,28.4460,-96.3961,3.569,1111122 
TCOON,ioos:station:TCOON:057:1,2015-04-02T23:12:00Z,28.4460,-96.3961,3.576,1111122 
TCOON,ioos:station:TCOON:057:1,2015-04-03T00:12:00Z,28.4460,-96.3961,3.57,1111122 
TCOON,ioos:station:TCOON:057:1,2015-04-03T01:12:00Z,28.4460,-96.3961,3.559,1111122 
TCOON,ioos:station:TCOON:057:1,2015-04-03T02:12:00Z,28.4460,-96.3961,3.552,1111122 
TCOON,ioos:station:TCOON:057:1,2015-04-03T03:18:00Z,28.4460,-96.3961,3.539,1111122 
TCOON,ioos:station:TCOON:057:1,2015-04-03T04:12:00Z,28.4460,-96.3961,3.514,1111122 
TCOON,ioos:station:TCOON:057:1,2015-04-03T05:18:00Z,28.4460,-96.3961,3.503,1111122 
TCOON,ioos:station:TCOON:057:1,2015-04-03T06:18:00Z,28.4460,-96.3961,3.509,1111122 
TCOON,ioos:station:TCOON:057:1,2015-04-03T07:12:00Z,28.4460,-96.3961,3.522,1111122 
TCOON,ioos:station:TCOON:057:1,2015-04-03T08:12:00Z,28.4460,-96.3961,3.555,1111122 
TCOON,ioos:station:TCOON:057:1,2015-04-03T09:30:00Z,28.4460,-96.3961,3.577,1111122 
TCOON,ioos:station:TCOON:057:1,2015-04-03T10:12:00Z,28.4460,-96.3961,3.577,1111122 
TCOON,ioos:station:TCOON:057:1,2015-04-03T11:18:00Z,28.4460,-96.3961,3.572,1111122 
TCOON,ioos:station:TCOON:057:1,2015-04-03T12:18:00Z,28.4460,-96.3961,3.57,1111122 
TCOON,ioos:station:TCOON:057:1,2015-04-03T13:12:00Z,28.4460,-96.3961,3.558,1111122 
TCOON,ioos:station:TCOON:057:1,2015-04-03T14:12:00Z,28.4460,-96.3961,3.558,1111122 
TCOON,ioos:station:TCOON:057:1,2015-04-03T15:18:00Z,28.4460,-96.3961,3.54,1111122 
TCOON,ioos:station:TCOON:057:1,2015-04-03T16:12:00Z,28.4460,-96.3961,3.533,1111122 
TCOON,ioos:station:TCOON:057:1,2015-04-03T17:12:00Z,28.4460,-96.3961,3.525,1111122 
TCOON,ioos:station:TCOON:057:1,2015-04-03T18:12:00Z,28.4460,-96.3961,3.527,1111122 
TCOON,ioos:station:TCOON:057:1,2015-04-03T19:12:00Z,28.4460,-96.3961,3.536,1111122 
TCOON,ioos:station:TCOON:057:1,2015-04-03T20:12:00Z,28.4460,-96.3961,3.548,1111122 
TCOON,ioos:station:TCOON:057:1,2015-04-03T21:12:00Z,28.4460,-96.3961,3.545,1111122 
TCOON,ioos:station:TCOON:057:1,2015-04-03T22:12:00Z,28.4460,-96.3961,3.561,1111122 
TCOON,ioos:station:TCOON:057:1,2015-04-03T23:12:00Z,28.4460,-96.3961,3.557,1111122 
TCOON,ioos:station:TCOON:057:1,2015-04-04T00:12:00Z,28.4460,-96.3961,3.546,1111122 
TCOON,ioos:station:TCOON:057:1,2015-04-04T01:30:00Z,28.4460,-96.3961,3.523,1111122 
TCOON,ioos:station:TCOON:057:1,2015-04-04T02:12:00Z,28.4460,-96.3961,3.513,1111122 
TCOON,ioos:station:TCOON:057:1,2015-04-04T03:12:00Z,28.4460,-96.3961,3.514,1111122 
TCOON,ioos:station:TCOON:057:1,2015-04-04T04:12:00Z,28.4460,-96.3961,3.5,1111122 
TCOON,ioos:station:TCOON:057:1,2015-04-04T05:12:00Z,28.4460,-96.3961,3.482,1111122 
TCOON,ioos:station:TCOON:057:1,2015-04-04T07:06:00Z,28.4460,-96.3961,3.501,1111122 
TCOON,ioos:station:TCOON:057:1,2015-04-04T08:12:00Z,28.4460,-96.3961,3.602,1111122 
TCOON,ioos:station:TCOON:057:1,2015-04-04T09:12:00Z,28.4460,-96.3961,3.584,1111122 
TCOON,ioos:station:TCOON:057:1,2015-04-04T10:12:00Z,28.4460,-96.3961,3.597,1111122 
TCOON,ioos:station:TCOON:057:1,2015-04-04T11:12:00Z,28.4460,-96.3961,3.595,1111122 
TCOON,ioos:station:TCOON:057:1,2015-04-04T12:12:00Z,28.4460,-96.3961,3.567,1111122 
TCOON,ioos:station:TCOON:057:1,2015-04-04T13:12:00Z,28.4460,-96.3961,3.556,1111122 
TCOON,ioos:station:TCOON:057:1,2015-04-04T14:12:00Z,28.4460,-96.3961,3.535,1111122 
TCOON,ioos:station:TCOON:057:1,2015-04-04T15:12:00Z,28.4460,-96.3961,3.534,1111122 
TCOON,ioos:station:TCOON:057:1,2015-04-04T16:12:00Z,28.4460,-96.3961,3.577,1111122 
TCOON,ioos:station:TCOON:057:1,2015-04-04T17:12:00Z,28.4460,-96.3961,3.521,1111122 
TCOON,ioos:station:TCOON:057:1,2015-04-04T18:12:00Z,28.4460,-96.3961,3.538,1111122 
TCOON,ioos:station:TCOON:057:1,2015-04-04T19:12:00Z,28.4460,-96.3961,3.555,1111122 
TCOON,ioos:station:TCOON:057:1,2015-04-04T20:12:00Z,28.4460,-96.3961,3.556,1111122 
TCOON,ioos:station:TCOON:057:1,2015-04-04T21:12:00Z,28.4460,-96.3961,3.565,1111122 
TCOON,ioos:station:TCOON:057:1,2015-04-04T22:12:00Z,28.4460,-96.3961,3.601,1111122 
TCOON,ioos:station:TCOON:057:1,2015-04-04T23:12:00Z,28.4460,-96.3961,3.628,1111122 
TCOON,ioos:station:TCOON:057:1,2015-04-05T00:12:00Z,28.4460,-96.3961,3.652,1111122 
TCOON,ioos:station:TCOON:057:1,2015-04-05T01:12:00Z,28.4460,-96.3961,3.642,1111122 
TCOON,ioos:station:TCOON:057:1,2015-04-05T02:12:00Z,28.4460,-96.3961,3.62,1111122 
TCOON,ioos:station:TCOON:057:1,2015-04-05T03:12:00Z,28.4460,-96.3961,3.607,1111122 
TCOON,ioos:station:TCOON:057:1,2015-04-05T04:12:00Z,28.4460,-96.3961,3.59,1111122 
TCOON,ioos:station:TCOON:057:1,2015-04-05T05:12:00Z,28.4460,-96.3961,3.604,1111122 
TCOON,ioos:station:TCOON:057:1,2015-04-05T07:06:00Z,28.4460,-96.3961,3.626,1111122 
TCOON,ioos:station:TCOON:057:1,2015-04-05T08:12:00Z,28.4460,-96.3961,3.65,1111122 
TCOON,ioos:station:TCOON:057:1,2015-04-05T09:12:00Z,28.4460,-96.3961,3.671,1111122 
TCOON,ioos:station:TCOON:057:1,2015-04-05T10:12:00Z,28.4460,-96.3961,3.687,1111122 
TCOON,ioos:station:TCOON:057:1,2015-04-05T11:12:00Z,28.4460,-96.3961,3.717,1111122 
TCOON,ioos:station:TCOON:057:1,2015-04-05T12:12:00Z,28.4460,-96.3961,3.725,1111122 
TCOON,ioos:station:TCOON:057:1,2015-04-05T13:12:00Z,28.4460,-96.3961,3.727,1111122 
TCOON,ioos:station:TCOON:057:1,2015-04-05T14:12:00Z,28.4460,-96.3961,3.732,1111122 
TCOON,ioos:station:TCOON:057:1,2015-04-05T15:12:00Z,28.4460,-96.3961,3.724,1111122 
TCOON,ioos:station:TCOON:057:1,2015-04-05T16:12:00Z,28.4460,-96.3961,3.729,1111122 
TCOON,ioos:station:TCOON:057:1,2015-04-05T17:12:00Z,28.4460,-96.3961,3.726,1111122 
TCOON,ioos:station:TCOON:057:1,2015-04-05T18:12:00Z,28.4460,-96.3961,3.71,1111122 
TCOON,ioos:station:TCOON:057:1,2015-04-05T19:12:00Z,28.4460,-96.3961,3.719,1111122 
TCOON,ioos:station:TCOON:057:1,2015-04-05T20:12:00Z,28.4460,-96.3961,3.722,1111122 
TCOON,ioos:station:TCOON:057:1,2015-04-05T21:12:00Z,28.4460,-96.3961,3.696,1111122 
TCOON,ioos:station:TCOON:057:1,2015-04-05T22:12:00Z,28.4460,-96.3961,3.681,1111122 
TCOON,ioos:station:TCOON:057:1,2015-04-05T23:12:00Z,28.4460,-96.3961,3.674,1111122 
TCOON,ioos:station:TCOON:057:1,2015-04-06T00:12:00Z,28.4460,-96.3961,3.658,1111122 
TCOON,ioos:station:TCOON:057:1,2015-04-06T01:12:00Z,28.4460,-96.3961,3.643,1111122 
TCOON,ioos:station:TCOON:057:1,2015-04-06T02:12:00Z,28.4460,-96.3961,3.618,1111122 
TCOON,ioos:station:TCOON:057:1,2015-04-06T03:12:00Z,28.4460,-96.3961,3.609,1111122 
TCOON,ioos:station:TCOON:057:1,2015-04-06T04:12:00Z,28.4460,-96.3961,3.579,1111122 
TCOON,ioos:station:TCOON:057:1,2015-04-06T05:18:00Z,28.4460,-96.3961,3.566,1111122 
TCOON,ioos:station:TCOON:057:1,2015-04-06T06:18:00Z,28.4460,-96.3961,3.554,1111122 
TCOON,ioos:station:TCOON:057:1,2015-04-06T07:12:00Z,28.4460,-96.3961,3.566,1111122 
TCOON,ioos:station:TCOON:057:1,2015-04-06T08:12:00Z,28.4460,-96.3961,3.583,1111122 
TCOON,ioos:station:TCOON:057:1,2015-04-06T09:18:00Z,28.4460,-96.3961,3.624,1111122 
TCOON,ioos:station:TCOON:057:1,2015-04-06T10:12:00Z,28.4460,-96.3961,3.648,1111122 
TCOON,ioos:station:TCOON:057:1,2015-04-06T11:12:00Z,28.4460,-96.3961,3.692,1111122 
TCOON,ioos:station:TCOON:057:1,2015-04-06T12:12:00Z,28.4460,-96.3961,3.718,1111122 
TCOON,ioos:station:TCOON:057:1,2015-04-06T13:12:00Z,28.4460,-96.3961,3.735,1111122 
TCOON,ioos:station:TCOON:057:1,2015-04-06T14:12:00Z,28.4460,-96.3961,3.744,1111122 
TCOON,ioos:station:TCOON:057:1,2015-04-06T15:18:00Z,28.4460,-96.3961,3.752,1111122 
TCOON,ioos:station:TCOON:057:1,2015-04-06T16:12:00Z,28.4460,-96.3961,3.744,1111122 
TCOON,ioos:station:TCOON:057:1,2015-04-06T17:18:00Z,28.4460,-96.3961,3.758,1111122 
TCOON,ioos:station:TCOON:057:1,2015-04-06T18:18:00Z,28.4460,-96.3961,3.746,1111122 
TCOON,ioos:station:TCOON:057:1,2015-04-06T19:18:00Z,28.4460,-96.3961,3.734,1111122 
TCOON,ioos:station:TCOON:057:1,2015-04-06T20:18:00Z,28.4460,-96.3961,3.742,1111122 
TCOON,ioos:station:TCOON:057:1,2015-04-06T21:18:00Z,28.4460,-96.3961,3.76,1111122 
TCOON,ioos:station:TCOON:057:1,2015-04-06T22:18:00Z,28.4460,-96.3961,3.756,1111122 
TCOON,ioos:station:TCOON:057:1,2015-04-06T23:12:00Z,28.4460,-96.3961,3.756,1111122 
TCOON,ioos:station:TCOON:057:1,2015-04-07T00:12:00Z,28.4460,-96.3961,3.73,1111122 
TCOON,ioos:station:TCOON:057:1,2015-04-07T01:12:00Z,28.4460,-96.3961,3.699,1111122 
TCOON,ioos:station:TCOON:057:1,2015-04-07T02:12:00Z,28.4460,-96.3961,3.685,1111122 
TCOON,ioos:station:TCOON:057:1,2015-04-07T03:12:00Z,28.4460,-96.3961,3.653,1111122 
TCOON,ioos:station:TCOON:057:1,2015-04-07T04:18:00Z,28.4460,-96.3961,3.624,1111122 
TCOON,ioos:station:TCOON:057:1,2015-04-07T05:12:00Z,28.4460,-96.3961,3.6,1111122 
TCOON,ioos:station:TCOON:057:1,2015-04-07T07:06:00Z,28.4460,-96.3961,3.578,1111122 
TCOON,ioos:station:TCOON:057:1,2015-04-07T08:12:00Z,28.4460,-96.3961,3.562,1111122 
TCOON,ioos:station:TCOON:057:1,2015-04-07T09:18:00Z,28.4460,-96.3961,3.595,1111122 
TCOON,ioos:station:TCOON:057:1,2015-04-07T10:12:00Z,28.4460,-96.3961,3.617,1111122 
TCOON,ioos:station:TCOON:057:1,2015-04-07T11:18:00Z,28.4460,-96.3961,3.673,1111122 
TCOON,ioos:station:TCOON:057:1,2015-04-07T12:18:00Z,28.4460,-96.3961,3.703,1111122 
TCOON,ioos:station:TCOON:057:1,2015-04-07T13:12:00Z,28.4460,-96.3961,3.734,1111122 
TCOON,ioos:station:TCOON:057:1,2015-04-07T14:12:00Z,28.4460,-96.3961,3.742,1111122 
TCOON,ioos:station:TCOON:057:1,2015-04-07T15:18:00Z,28.4460,-96.3961,3.755,1111122 
TCOON,ioos:station:TCOON:057:1,2015-04-07T16:18:00Z,28.4460,-96.3961,3.768,1111122 
TCOON,ioos:station:TCOON:057:1,2015-04-07T17:18:00Z,28.4460,-96.3961,3.755,1111122 
TCOON,ioos:station:TCOON:057:1,2015-04-07T18:18:00Z,28.4460,-96.3961,3.743,1111122 
TCOON,ioos:station:TCOON:057:1,2015-04-07T19:18:00Z,28.4460,-96.3961,3.73,1111122 
TCOON,ioos:station:TCOON:057:1,2015-04-07T20:12:00Z,28.4460,-96.3961,3.722,1111122 
TCOON,ioos:station:TCOON:057:1,2015-04-07T21:18:00Z,28.4460,-96.3961,3.705,1111122 
TCOON,ioos:station:TCOON:057:1,2015-04-07T22:24:00Z,28.4460,-96.3961,3.697,1111122 
TCOON,ioos:station:TCOON:057:1,2015-04-07T23:12:00Z,28.4460,-96.3961,3.679,1111122 
TCOON,ioos:station:TCOON:057:1,2015-04-08T00:12:00Z,28.4460,-96.3961,3.648,1111122 
TCOON,ioos:station:TCOON:057:1,2015-04-08T01:12:00Z,28.4460,-96.3961,3.623,1111122 
TCOON,ioos:station:TCOON:057:1,2015-04-08T02:12:00Z,28.4460,-96.3961,3.597,1111122 
TCOON,ioos:station:TCOON:057:1,2015-04-08T03:12:00Z,28.4460,-96.3961,3.571,1111122 
TCOON,ioos:station:TCOON:057:1,2015-04-08T04:12:00Z,28.4460,-96.3961,3.543,1111122 
TCOON,ioos:station:TCOON:057:1,2015-04-08T05:18:00Z,28.4460,-96.3961,3.51,1111122 
TCOON,ioos:station:TCOON:057:1,2015-04-08T07:06:00Z,28.4460,-96.3961,3.466,1111122 
TCOON,ioos:station:TCOON:057:1,2015-04-08T08:12:00Z,28.4460,-96.3961,3.465,1111122 
TCOON,ioos:station:TCOON:057:1,2015-04-08T09:18:00Z,28.4460,-96.3961,3.498,1111122 
TCOON,ioos:station:TCOON:057:1,2015-04-08T10:12:00Z,28.4460,-96.3961,3.531,1111122 
TCOON,ioos:station:TCOON:057:1,2015-04-08T11:12:00Z,28.4460,-96.3961,3.558,1111122 
TCOON,ioos:station:TCOON:057:1,2015-04-08T12:12:00Z,28.4460,-96.3961,3.589,1111122 
TCOON,ioos:station:TCOON:057:1,2015-04-08T13:18:00Z,28.4460,-96.3961,3.623,1111122 
TCOON,ioos:station:TCOON:057:1,2015-04-08T14:12:00Z,28.4460,-96.3961,3.652,1111122 
TCOON,ioos:station:TCOON:057:1,2015-04-08T15:18:00Z,28.4460,-96.3961,3.685,1111122 
TCOON,ioos:station:TCOON:057:1,2015-04-08T16:18:00Z,28.4460,-96.3961,3.699,1111122 
TCOON,ioos:station:TCOON:057:1,2015-04-08T17:18:00Z,28.4460,-96.3961,3.712,1111122 
TCOON,ioos:station:TCOON:057:1,2015-04-08T18:12:00Z,28.4460,-96.3961,3.702,1111122 
TCOON,ioos:station:TCOON:057:1,2015-04-08T19:18:00Z,28.4460,-96.3961,3.723,1111122 
TCOON,ioos:station:TCOON:057:1,2015-04-08T20:24:00Z,28.4460,-96.3961,3.729,1111122 
TCOON,ioos:station:TCOON:057:1,2015-04-08T21:12:00Z,28.4460,-96.3961,3.735,1111122 
TCOON,ioos:station:TCOON:057:1,2015-04-08T22:18:00Z,28.4460,-96.3961,3.73,1111122 
TCOON,ioos:station:TCOON:057:1,2015-04-08T23:36:00Z,28.4460,-96.3961,3.705,1111122 
TCOON,ioos:station:TCOON:057:1,2015-04-09T00:18:00Z,28.4460,-96.3961,3.7,1111122 
TCOON,ioos:station:TCOON:057:1,2015-04-09T01:12:00Z,28.4460,-96.3961,3.682,1111122 
TCOON,ioos:station:TCOON:057:1,2015-04-09T02:54:00Z,28.4460,-96.3961,3.616,1111122 
TCOON,ioos:station:TCOON:057:1,2015-04-09T03:12:00Z,28.4460,-96.3961,3.612,1111122 
TCOON,ioos:station:TCOON:057:1,2015-04-09T04:12:00Z,28.4460,-96.3961,3.594,1111122 
TCOON,ioos:station:TCOON:057:1,2015-04-09T05:12:00Z,28.4460,-96.3961,3.54,1111122 
TCOON,ioos:station:TCOON:057:1,2015-04-09T07:06:00Z,28.4460,-96.3961,3.48,1111122 
TCOON,ioos:station:TCOON:057:1,2015-04-09T08:18:00Z,28.4460,-96.3961,3.478,1111122 
TCOON,ioos:station:TCOON:057:1,2015-04-09T09:36:00Z,28.4460,-96.3961,3.518,1111122 
TCOON,ioos:station:TCOON:057:1,2015-04-09T10:12:00Z,28.4460,-96.3961,3.542,1111122 
TCOON,ioos:station:TCOON:057:1,2015-04-09T11:12:00Z,28.4460,-96.3961,3.571,1111122 
TCOON,ioos:station:TCOON:057:1,2015-04-09T12:18:00Z,28.4460,-96.3961,3.594,1111122 
TCOON,ioos:station:TCOON:057:1,2015-04-09T13:18:00Z,28.4460,-96.3961,3.632,1111122 
TCOON,ioos:station:TCOON:057:1,2015-04-09T14:12:00Z,28.4460,-96.3961,3.659,1111122 
TCOON,ioos:station:TCOON:057:1,2015-04-09T15:18:00Z,28.4460,-96.3961,3.689,1111122 
TCOON,ioos:station:TCOON:057:1,2015-04-09T16:18:00Z,28.4460,-96.3961,3.682,1111122 
TCOON,ioos:station:TCOON:057:1,2015-04-09T17:18:00Z,28.4460,-96.3961,3.7,1111122 
TCOON,ioos:station:TCOON:057:1,2015-04-09T18:36:00Z,28.4460,-96.3961,3.717,1111122 
TCOON,ioos:station:TCOON:057:1,2015-04-09T19:30:00Z,28.4460,-96.3961,3.74,1111122 
TCOON,ioos:station:TCOON:057:1,2015-04-09T20:24:00Z,28.4460,-96.3961,3.744,1111122 
TCOON,ioos:station:TCOON:057:1,2015-04-09T21:36:00Z,28.4460,-96.3961,3.729,1111122 
TCOON,ioos:station:TCOON:057:1,2015-04-09T22:18:00Z,28.4460,-96.3961,3.725,1111122 
TCOON,ioos:station:TCOON:057:1,2015-04-09T23:18:00Z,28.4460,-96.3961,3.711,1111122 
TCOON,ioos:station:TCOON:057:1,2015-04-10T00:12:00Z,28.4460,-96.3961,3.697,1111122 
TCOON,ioos:station:TCOON:057:1,2015-04-10T01:12:00Z,28.4460,-96.3961,3.68,1111122 
TCOON,ioos:station:TCOON:057:1,2015-04-10T02:12:00Z,28.4460,-96.3961,3.652,1111122 
TCOON,ioos:station:TCOON:057:1,2015-04-10T03:12:00Z,28.4460,-96.3961,3.615,1111122 
TCOON,ioos:station:TCOON:057:1,2015-04-10T04:18:00Z,28.4460,-96.3961,3.576,1111122 
TCOON,ioos:station:TCOON:057:1,2015-04-10T05:18:00Z,28.4460,-96.3961,3.545,1111122 
TCOON,ioos:station:TCOON:057:1,2015-04-10T07:30:00Z,28.4460,-96.3961,3.499,1111122 
TCOON,ioos:station:TCOON:057:1,2015-04-10T08:18:00Z,28.4460,-96.3961,3.478,1111122 
TCOON,ioos:station:TCOON:057:1,2015-04-10T09:24:00Z,28.4460,-96.3961,3.487,1111122 
TCOON,ioos:station:TCOON:057:1,2015-04-10T10:18:00Z,28.4460,-96.3961,3.46,1111122 
TCOON,ioos:station:TCOON:057:1,2015-04-10T11:12:00Z,28.4460,-96.3961,3.472,1111122 
TCOON,ioos:station:TCOON:057:1,2015-04-10T12:18:00Z,28.4460,-96.3961,3.509,1111122 
TCOON,ioos:station:TCOON:057:1,2015-04-10T13:18:00Z,28.4460,-96.3961,3.538,1111122 
TCOON,ioos:station:TCOON:057:1,2015-04-10T14:36:00Z,28.4460,-96.3961,3.579,1111122 
TCOON,ioos:station:TCOON:057:1,2015-04-10T15:18:00Z,28.4460,-96.3961,3.602,1111122 
TCOON,ioos:station:TCOON:057:1,2015-04-10T16:12:00Z,28.4460,-96.3961,3.62,1111122 
TCOON,ioos:station:TCOON:057:1,2015-04-10T17:18:00Z,28.4460,-96.3961,3.65,1111122 
TCOON,ioos:station:TCOON:057:1,2015-04-10T18:36:00Z,28.4460,-96.3961,3.85,1111122 
TCOON,ioos:station:TCOON:057:1,2015-04-10T20:48:00Z,28.4460,-96.3961,3.667,1111122 
TCOON,ioos:station:TCOON:057:1,2015-04-10T21:12:00Z,28.4460,-96.3961,3.659,1111122 
TCOON,ioos:station:TCOON:057:1,2015-04-10T22:24:00Z,28.4460,-96.3961,3.662,1111122 
TCOON,ioos:station:TCOON:057:1,2015-04-10T23:18:00Z,28.4460,-96.3961,3.627,1111122 
TCOON,ioos:station:TCOON:057:1,2015-04-11T00:48:00Z,28.4460,-96.3961,3.589,1111122 
TCOON,ioos:station:TCOON:057:1,2015-04-11T01:24:00Z,28.4460,-96.3961,3.588,1111122 
TCOON,ioos:station:TCOON:057:1,2015-04-11T02:12:00Z,28.4460,-96.3961,3.589,1111122 
TCOON,ioos:station:TCOON:057:1,2015-04-11T03:12:00Z,28.4460,-96.3961,3.562,1111122 
TCOON,ioos:station:TCOON:057:1,2015-04-11T04:18:00Z,28.4460,-96.3961,3.541,1111122 
TCOON,ioos:station:TCOON:057:1,2015-04-11T05:12:00Z,28.4460,-96.3961,3.512,1111122 
TCOON,ioos:station:TCOON:057:1,2015-04-11T06:30:00Z,28.4460,-96.3961,3.49,1111122 
TCOON,ioos:station:TCOON:057:1,2015-04-11T07:42:00Z,28.4460,-96.3961,3.472,1111122 
TCOON,ioos:station:TCOON:057:1,2015-04-11T08:30:00Z,28.4460,-96.3961,3.45,1111122 
TCOON,ioos:station:TCOON:057:1,2015-04-11T09:12:00Z,28.4460,-96.3961,3.43,1111122 
TCOON,ioos:station:TCOON:057:1,2015-04-11T10:18:00Z,28.4460,-96.3961,3.42,1111122 
TCOON,ioos:station:TCOON:057:1,2015-04-11T11:18:00Z,28.4460,-96.3961,3.439,1111122 
TCOON,ioos:station:TCOON:057:1,2015-04-11T12:12:00Z,28.4460,-96.3961,3.484,1111122 
TCOON,ioos:station:TCOON:057:1,2015-04-11T13:12:00Z,28.4460,-96.3961,3.514,1111122 
TCOON,ioos:station:TCOON:057:1,2015-04-11T14:12:00Z,28.4460,-96.3961,3.542,1111122 
TCOON,ioos:station:TCOON:057:1,2015-04-11T15:24:00Z,28.4460,-96.3961,3.571,1111122 
TCOON,ioos:station:TCOON:057:1,2015-04-11T16:12:00Z,28.4460,-96.3961,3.61,1111122 
TCOON,ioos:station:TCOON:057:1,2015-04-11T17:12:00Z,28.4460,-96.3961,3.652,1111122 
TCOON,ioos:station:TCOON:057:1,2015-04-11T18:24:00Z,28.4460,-96.3961,3.663,1111122 
TCOON,ioos:station:TCOON:057:1,2015-04-11T19:24:00Z,28.4460,-96.3961,3.703,1111122 
TCOON,ioos:station:TCOON:057:1,2015-04-11T20:30:00Z,28.4460,-96.3961,3.702,1111122 
TCOON,ioos:station:TCOON:057:1,2015-04-11T21:12:00Z,28.4460,-96.3961,3.719,1111122 
TCOON,ioos:station:TCOON:057:1,2015-04-12T00:12:00Z,28.4460,-96.3961,3.723,1111122 
TCOON,ioos:station:TCOON:057:1,2015-04-12T01:12:00Z,28.4460,-96.3961,3.716,1111122 
TCOON,ioos:station:TCOON:057:1,2015-04-12T02:12:00Z,28.4460,-96.3961,3.692,1111122 
TCOON,ioos:station:TCOON:057:1,2015-04-12T03:12:00Z,28.4460,-96.3961,3.682,1111122 
TCOON,ioos:station:TCOON:057:1,2015-04-12T04:12:00Z,28.4460,-96.3961,3.652,1111122 
TCOON,ioos:station:TCOON:057:1,2015-04-12T05:12:00Z,28.4460,-96.3961,3.616,1111122 
TCOON,ioos:station:TCOON:057:1,2015-04-12T07:06:00Z,28.4460,-96.3961,3.574,1111122 
TCOON,ioos:station:TCOON:057:1,2015-04-12T08:30:00Z,28.4460,-96.3961,3.557,1111122 
TCOON,ioos:station:TCOON:057:1,2015-04-12T09:12:00Z,28.4460,-96.3961,3.526,1111122 
TCOON,ioos:station:TCOON:057:1,2015-04-12T10:12:00Z,28.4460,-96.3961,3.519,1111122 
TCOON,ioos:station:TCOON:057:1,2015-04-12T11:12:00Z,28.4460,-96.3961,3.521,1111122 
TCOON,ioos:station:TCOON:057:1,2015-04-12T12:12:00Z,28.4460,-96.3961,3.519,1111122 
TCOON,ioos:station:TCOON:057:1,2015-04-12T13:24:00Z,28.4460,-96.3961,3.539,1111122 
TCOON,ioos:station:TCOON:057:1,2015-04-12T14:42:00Z,28.4460,-96.3961,3.595,1111122 
TCOON,ioos:station:TCOON:057:1,2015-04-12T15:24:00Z,28.4460,-96.3961,3.592,1111122 
TCOON,ioos:station:TCOON:057:1,2015-04-12T16:30:00Z,28.4460,-96.3961,3.646,1111122 
TCOON,ioos:station:TCOON:057:1,2015-04-12T17:12:00Z,28.4460,-96.3961,3.673,1111122 
TCOON,ioos:station:TCOON:057:1,2015-04-12T18:12:00Z,28.4460,-96.3961,3.689,1111122 
TCOON,ioos:station:TCOON:057:1,2015-04-12T19:24:00Z,28.4460,-96.3961,3.708,1111122 
TCOON,ioos:station:TCOON:057:1,2015-04-12T22:12:00Z,28.4460,-96.3961,3.739,1111122 
TCOON,ioos:station:TCOON:057:1,2015-04-12T23:12:00Z,28.4460,-96.3961,3.768,1111122 
TCOON,ioos:station:TCOON:057:1,2015-04-13T00:12:00Z,28.4460,-96.3961,3.776,1111122 
TCOON,ioos:station:TCOON:057:1,2015-04-13T01:12:00Z,28.4460,-96.3961,3.784,1111122 
TCOON,ioos:station:TCOON:057:1,2015-04-13T02:24:00Z,28.4460,-96.3961,3.774,1111122 
TCOON,ioos:station:TCOON:057:1,2015-04-13T03:12:00Z,28.4460,-96.3961,3.768,1111122 
TCOON,ioos:station:TCOON:057:1,2015-04-13T04:24:00Z,28.4460,-96.3961,3.754,1111122 
TCOON,ioos:station:TCOON:057:1,2015-04-13T05:18:00Z,28.4460,-96.3961,3.743,1111122 
TCOON,ioos:station:TCOON:057:1,2015-04-13T07:36:00Z,28.4460,-96.3961,3.653,1111122 
TCOON,ioos:station:TCOON:057:1,2015-04-13T13:18:00Z,28.4460,-96.3961,3.654,1111122 
TCOON,ioos:station:TCOON:057:1,2015-04-13T14:24:00Z,28.4460,-96.3961,3.644,1111122 
TCOON,ioos:station:TCOON:057:1,2015-04-13T15:42:00Z,28.4460,-96.3961,3.708,1111122 